Location: *
(34.6780°N, 135.8310°E)
Time: 03:07:05
(UTC+00:00)

BREEZE-M DEB (TANK) - Pass Details

Date: 18 October 2019
Orbit: 296 x 13969 km, 46.1° (Epoch: 21 November)

Event Time Altitude Azimuth Distance (km) Brightness Sun altitude
Exits shadow 18:41:37 25° 86° (E) 1,067 4.4 -30.1°
Drops below altitude 10° 18:42:41 11° 98° (E) 1,488 5.3 -29.9°
Sets 18:44:07 0° 105° (ESE) 2,159 6.3 -29.6°
